OBJECT D, 62380

Orbit data source: Space-Track

You're viewing an Uncataloged Satellite

Recently launched and/or uncataloged satellites may have evolving metadata. Metadata may include but not limited to: Owner, Maufacturer, Bus, Motor, and Mission.

OBJECT D, 62380 is a satellite in LEO that was launched on Sat, 21 Dec 2024 UTC via an FALCON 9 launch vehicle from the Air Force Western Test Range (AFWTR). Unknown objects in Earth's orbit typically refer to objects detected orbiting the Earth but have not yet been identified or cataloged. These objects could be anything from previously untracked satellites, spent rocket stages, debris from satellite collisions, or even natural meteoroids temporarily captured by Earth's gravity.

Loading next visibility...
Identifier
62380, 2024-247D
Orbit
LEO
Country
Flag of TBDTBD
Related business
None
Manufacturer
Unknown
Mission
Operational Commercial Technology
Bus & Motor
Unknown
Mass
Unknown
Launch date (UTC)
2024-12-21 (10 months ago)
Launch vehicle
FALCON 9
Launch site
Air Force Western Test Range (AFWTR)
Object type
Unknown
Shape & HBR
Box + 2 Pan, 1.0 m
Radar Cross Section
0.183 m², Medium (>0.1 m² and < 1m²)

Expand to show TLE details & history
Last TLE update: 20 hours ago

TLE from 20 hours ago
0 OBJECT D
1 62380U 24247D   25297.61678480  .00011896  00000-0  46963-3 0  9999
2 62380  44.9979 137.4137 0001258 213.4118 146.6686 15.25635448 46959
Epoch: 2025-10-24T14:48Z
TLE epoch observation values (Epoch: 2025-10-24T14:48:10.206Z)
Latitude
0.00004°
Longitude
-117.88791°
Altitude
489.598 km
Speed
7.622 km/s
True Right ascension
09h 09m 39s
True Declination
0° 00' 00"
Sunlit
Object was in daylight at epoch
Visualization orbit readout
Latitude
Unknown
Longitude
Unknown
Altitude
Unknown
Speed
Unknown
Apparent Right ascension
Unknown
Apparent Declination
Unknown
Sunlit
N/A
Visualization observer readout
Local Sidereal Time
06:15:24
Azimuth
Unknown
Elevation
Unknown
Doppler factor
Unknown
Orbital elements
Apogee altitude
491.35 km
Perigee altitude
489.622 km
Semi-major axis
6,868.623 km
Eccentricity
0.00013
Inclination
44.9979°
RAAN
137.4137°
Arg. of periapsis
213.4118°
True anomaly
146.67652°
Mean anomaly
146.6686°
Eccentric anomaly
146.67256°
Mean motion
3.81275 °/min
Orbital period
94.42 mins
BSTAR
0.00046963
Loading maneuver chart data...
Computing Atmospheric mass density...
Loading historical data...
Loading historical data...
Loading historical data...
Loading historical data...
Loading historical data...
Loading historical data...
Loading historical data...

Documentation

Showing up to 5 results
|